Location: Casseuil
(44.5854°N, 0.1112°W)
Time: 00:31:45
(UTC+00:00)

Daily predictions for brighter satellites

Satellite Brightness Start Highest point End
(mag) Time Altitude Azimuth Time Altitude Azimuth Time Altitude Azimuth
Lacrosse 5 3.7 03:51:42 25° NE 03:51:42 25° NE 03:53:51 10° NE
SJ 16-02 3.6 03:54:07 21° NE 03:54:07 21° NE 03:55:55 10° NE
SL-4 R/B 4.2 03:53:57 28° NE 03:53:57 28° NE 03:56:39 10° E
Cosmos 1605 Rocket 4.2 04:04:20 61° NNE 04:04:20 61° NNE 04:09:21 10° N
CZ-2C R/B 3.4 03:59:03 10° NNE 04:03:41 43° E 04:03:58 43° ESE
CZ-4C R/B 4.3 04:05:12 17° N 04:05:12 17° N 04:08:06 10° NNE
Cosmos 990 Rocket 4.4 04:09:08 58° E 04:09:08 58° E 04:13:56 10° NNE
Cosmos 2082 Rocket 3.3 04:12:05 33° N 04:12:05 33° N 04:15:16 10° NNE
NOSS 3-3 (A) 4.0 04:09:17 70° SSE 04:09:43 73° ESE 04:16:16 10° NE
NOSS 3-3 (C) 4.0 04:09:22 69° SSE 04:09:50 72° ESE 04:16:22 10° NE
ASTEX 1 4.1 04:06:15 10° SSE 04:11:03 52° ENE 04:15:54 10° N
Cosmos 1833 Rocket 4.3 04:25:12 22° N 04:25:12 22° N 04:27:25 10° N
STARLINK-61 4.4 04:33:16 47° ESE 04:33:16 47° ESE 04:36:49 10° ENE
Cosmos 839 Rocket 4.1 04:34:13 56° WNW 04:34:36 56° NW 04:40:45 10° NNE
BREEZE-M DEB (TANK) 3.6 04:40:32 43° E 04:40:32 43° E 04:42:21 10° E
Cosmos 2360 Rocket 3.9 04:34:49 10° N 04:39:48 30° NE 04:44:44 10° ESE
ATLAS 2AS CENTAUR R/B 3.1 04:36:31 24° NNW 04:41:29 66° NE 04:48:31 10° SE
SL-16 R/B 2.5 04:39:16 25° NNW 04:42:41 65° ENE 04:48:18 10° SE
Cosmos 1459 Rocket 4.4 04:36:53 10° S 04:42:58 64° E 04:49:12 10° NNE
Meteor PRIRODA 4.4 04:40:59 10° NNE 04:44:34 50° E 04:48:06 10° S
Cosmos 1980 Rocket 3.2 04:47:47 30° SSW 04:47:47 30° SSW 04:51:03 10° S
Cosmos 1408 4.4 04:43:35 10° SSE 04:46:53 32° E 04:50:12 10° NNE
Cosmos 1898 Rocket 3.4 04:47:00 62° WNW 04:47:10 62° WNW 04:52:25 10° NNE
COSMOS 2455 2.8 04:45:10 31° NNW 04:48:13 82° ENE 04:54:14 10° SSE
STARLINK-68 4.5 04:47:42 37° S 04:48:45 46° SE 04:52:44 10° ENE
MSX 3.9 04:44:12 10° N 04:49:43 50° WNW 04:49:50 50° WNW
Cosmos 2322 Rocket 2.5 04:46:59 20° NNW 04:51:01 65° ENE 04:56:39 10° SE
COBE Rocket 3.9 04:45:57 10° SSE 04:51:07 85° ENE 04:56:11 10° N
STARLINK-62 4.4 04:50:51 37° S 04:52:01 48° SE 04:56:01 10° ENE
STARLINK-63 4.4 04:52:19 34° S 04:53:38 48° SE 04:57:38 10° ENE
Cosmos 1937 Rocket 3.3 04:52:31 33° SW 04:54:47 73° WNW 04:59:57 10° NNE
ATLAS CENTAUR R/B 2.6 04:51:24 10° SSW 04:56:08 50° ESE 05:00:47 10° NE
STARLINK-72 4.4 04:55:22 32° SSW 04:56:52 49° SE 05:00:53 10° ENE
Abrixas rocket 3.5 04:57:06 32° SE 04:57:06 32° SE 04:59:48 10° E
STARLINK-59 4.2 04:58:44 33° SSW 05:00:15 54° SE 05:04:19 10° ENE
STARLINK-57 4.2 05:00:22 33° SSW 05:01:58 56° SE 05:06:02 10° ENE
STARLINK-28 4.0 05:03:32 32° SSW 05:05:14 60° SE 05:09:19 10° ENE
Meteor 2-20 Rocket 4.3 04:59:06 10° NNW 05:05:14 69° W 05:11:20 10° S
USA 234 4.4 04:59:49 10° ENE 05:05:20 30° N 05:08:33 20° NW
STARLINK-53 4.0 05:04:34 32° SSW 05:06:19 61° SE 05:10:25 10° ENE
Lacrosse 5 rocket 3.2 05:05:45 15° N 05:06:35 16° NNE 05:08:53 10° ENE
STARLINK-75 3.8 05:05:10 36° SW 05:06:42 68° SE 05:10:50 10° ENE
STARLINK-54 3.9 05:06:44 31° SSW 05:08:32 64° SE 05:12:39 10° ENE
Cosmos 1408 Rocket 3.9 05:05:52 10° S 05:10:07 65° E 05:14:26 10° NNE
STARLINK-80 3.9 05:10:34 42° NNW 05:10:35 42° NNW 05:14:16 10° NE
Cosmos 2150 Rocket 4.4 05:06:00 10° S 05:11:24 67° ESE 05:16:47 10° NNE
STARLINK-37 3.8 05:11:06 29° SW 05:13:04 70° SE 05:17:13 10° ENE
STARLINK-55 3.8 05:11:26 28° SW 05:13:29 68° SE 05:17:36 10° ENE
Cosmos 2100 Rocket 3.9 05:07:28 10° SSW 05:13:38 71° W 05:19:48 10° N
STARLINK-34 3.8 05:13:09 28° SW 05:15:11 71° SE 05:19:19 10° ENE
STARLINK-67 3.4 05:15:22 40° NNE 05:15:22 40° NNE 05:17:48 10° E
STARLINK-24 3.8 05:13:19 28° SW 05:15:24 71° SE 05:19:33 10° ENE
Cosmos 2151 2.9 05:11:30 10° SSW 05:15:46 64° W 05:20:03 10° N
STARLINK-81 3.8 05:14:24 25° SW 05:16:40 68° SE 05:20:48 10° ENE
FENGYUN 3A 4.3 05:13:39 10° NNE 05:19:00 58° E 05:24:18 10° S
STARLINK-77 3.8 05:17:36 24° SW 05:20:00 72° SE 05:24:08 10° ENE
CZ-4B R/B 4.4 05:15:46 10° N 05:20:01 42° WNW 05:24:13 10° SW
Cosmos 1892 2.9 05:20:34 38° WSW 05:21:17 44° WNW 05:24:55 10° N
STARLINK-25 3.7 05:19:16 23° SW 05:21:44 74° SE 05:25:52 10° ENE
H-2A R/B 4.2 05:18:57 10° N 05:20:55 20° NNW 05:20:55 20° NNW
Cosmos 1606 4.1 05:19:35 10° N 05:23:11 39° ENE 05:26:47 10° SSE
STARLINK-71 3.6 05:21:13 25° SW 05:23:34 82° SE 05:27:43 10° ENE
BREEZE-M DEB (TANK) 3.1 05:25:26 20° SSW 05:25:26 20° SSW 05:26:46 10° SSE
STARLINK-79 3.7 05:22:22 22° SW 05:24:56 78° SE 05:29:05 10° ENE
Cosmos 1766 Rocket 3.5 05:21:14 10° SSW 05:25:29 55° WNW 05:29:47 10° N
CZ-4B R/B 4.0 05:20:25 10° NNE 05:25:43 54° ESE 05:31:06 10° S
STARLINK-78 3.6 05:24:03 22° SW 05:26:40 81° SE 05:30:50 10° ENE
Meteor 1-31 Rocket 4.1 05:23:18 10° N 05:25:16 23° NNW 05:25:16 23° NNW
Cosmos 2333 Rocket 4.1 05:22:05 10° N 05:26:56 27° NE 05:31:46 10° ESE
STARLINK-49 3.6 05:27:12 20° SW 05:29:58 85° SE 05:34:07 10° ENE
Cosmos 2219 Rocket 4.0 05:25:48 10° N 05:30:34 27° NE 05:35:18 10° ESE
SJ 16-02 2.5 05:31:11 24° NW 05:31:11 24° NW 05:34:12 10° N
Okean 3 Rocket 4.0 05:26:30 10° SW 05:30:43 38° WNW 05:34:56 10° N
Cosmos 1802 Rocket 4.0 05:24:40 10° SSW 05:31:04 69° W 05:37:30 10° N
Helios 1A Rocket 3.4 05:27:16 10° NNE 05:31:22 63° ESE 05:35:23 10° S
STARLINK-27 3.6 05:28:48 20° SW 05:31:37 87° SSE 05:35:47 10° ENE
SL-4 R/B 2.4 05:29:34 26° WNW 05:32:19 85° NNE 05:37:08 10° ESE
Cosmos 1484 Rocket 2.9 05:28:39 10° N 05:32:35 55° WNW 05:36:30 10° SSW
Lacrosse 5 3.2 05:30:55 20° NW 05:32:36 24° NNW 05:36:44 10° NE
STARLINK-74 3.6 05:30:25 19° SW 05:33:19 89° SE 05:37:28 10° ENE
Shenzhou-11 Module 3.2 05:33:16 24° SW 05:33:36 24° SSW 05:35:53 10° SE
STARLINK-39 3.5 05:32:02 19° SW 05:34:59 89° NW 05:39:09 10° ENE
Cosmos 372 Rocket 3.9 05:30:21 10° SSW 05:35:31 80° WNW 05:40:41 10° NNE
COSMO-SKYMED 1 2.6 05:31:19 10° S 05:35:34 54° W 05:39:51 10° NNW
STARLINK 3.5 05:33:36 18° WSW 05:36:37 87° NNW 05:40:46 10° NE
STARLINK-42 3.5 05:34:24 19° WSW 05:37:20 83° NW 05:41:30 10° NE
Cosmos 1825 2.0 05:34:17 10° S 05:38:02 80° W 05:41:49 10° N
STARLINK-21 3.5 05:36:21 17° WSW 05:39:27 83° NNW 05:43:37 10° NE
STARLINK-48 4.2 05:39:19 26° WNW 05:40:50 36° NNW 05:44:29 10° NE
STARLINK-46 4.3 05:40:07 19° NNW 05:41:30 27° NNE 05:44:06 10° E
CZ-2C R/B 3.4 05:37:50 10° NNW 05:41:39 23° WNW 05:43:19 19° W
STARLINK-45 3.5 05:39:02 18° WSW 05:42:01 74° NNW 05:46:10 10° NE
ALOS 2.2 05:38:36 10° N 05:43:17 80° WNW 05:47:57 10° SSW
COSMOS 2487 2.3 05:40:08 10° SSW 05:43:33 59° WNW 05:46:59 10° NNE
STARLINK-76 3.5 05:41:37 16° WSW 05:44:56 77° NNW 05:49:06 10° NE
CZ-4B R/B 4.4 05:43:04 10° NNW 05:44:17 16° NW 05:44:17 16° NW
Cosmos 2173 Rocket 4.3 05:40:12 10° SSW 05:46:07 44° WNW 05:52:00 10° N
Cosmos 1400 Rocket 3.5 05:42:31 10° N 05:46:33 58° ENE 05:50:31 10° SSE
STARLINK 3.5 05:43:15 15° WSW 05:46:37 75° NNW 05:50:46 10° NE
Cosmos 2061 Rocket 4.0 05:40:49 10° SSW 05:46:57 59° W 05:53:07 10° N
PAYLOAD B 4.1 05:41:34 10° NNE 05:47:05 76° WNW 05:52:34 10° SSW
STARLINK-32 3.5 05:44:51 15° WSW 05:48:17 73° NNW 05:52:26 10° NE
Gbstr 26 Del rocket 3.6 05:47:22 21° WNW 05:49:11 31° NNW 05:52:34 10° NE
STARLINK-40 3.6 05:46:28 14° WSW 05:49:58 71° NNW 05:54:07 10° NE
STARLINK-44 3.6 05:48:06 14° WSW 05:51:39 69° NNW 05:55:48 10° NE
NOSS 3-4 (A) 3.9 05:45:29 11° NW 05:52:25 70° WSW 06:00:05 10° SSE
NOSS 3-4 (C) 3.9 05:45:35 10° NW 05:52:31 70° WSW 06:00:11 10° SSE
Cosmos 2298 Rocket 4.2 05:47:37 10° SW 05:52:46 52° WNW 05:57:58 10° NNE
STARLINK-36 3.6 05:49:40 13° WSW 05:53:18 68° NNW 05:57:26 10° NE
DMSP B5D1-3 4.5 05:48:45 10° SSE 05:53:52 83° WSW 05:59:04 10° NNW
Cosmos 2082 Rocket 3.9 05:53:57 13° NW 05:54:54 13° NW 05:57:37 10° N
CZ-4C R/B 4.5 05:51:31 10° NNW 05:55:08 15° N 05:59:03 10° NE
USA 116 3.7 05:54:21 10° S 05:57:26 41° W 06:00:49 10° NNW
Cosmos 1048 Rocket 4.0 05:52:05 10° NNW 05:57:29 73° WSW 06:02:46 10° SSE
CZ-4B DEB 4.3 05:53:39 10° N 05:58:59 54° WNW 06:04:17 10° SW
STARLINK-35 3.7 05:55:59 11° WSW 05:59:53 62° NNW 06:04:00 10° NE
Cosmos 2233 Rocket 4.1 05:53:45 10° S 06:00:02 87° E 06:06:24 10° N
STARLINK-51 3.7 05:57:39 11° WSW 06:01:36 60° NNW 06:05:44 10° NE
STARLINK-30 3.7 05:59:16 10° WSW 06:03:17 59° NNW 06:07:24 10° NE
STARLINK-33 3.7 06:00:50 10° WSW 06:04:55 57° NNW 06:09:02 10° NE
STARLINK-50 3.8 06:02:29 10° WSW 06:06:34 56° NNW 06:10:40 10° NE
Cosmos 2237 4.2 06:01:47 10° NNW 06:07:29 68° WSW 06:13:07 10° SSE
Cosmos 2228 Rocket 3.1 06:03:47 10° NNW 06:08:22 69° W 06:12:54 10° S
Okean O Rocket 1.7 06:04:11 10° N 06:08:25 53° WNW 06:12:38 10° SSW
STARLINK-56 3.8 06:05:49 10° WSW 06:09:53 54° NNW 06:13:58 10° NE
STARLINK-26 3.9 06:06:45 10° W 06:10:43 48° NNW 06:14:43 10° NE
Starlink (trailer) 3.8 06:07:43 10° WSW 06:11:46 52° NNW 06:15:51 10° NE
STARLINK-61 4.2 06:08:35 11° W 06:12:11 39° NNW 06:16:00 10° NE
STARLINK-38 3.9 06:09:13 10° WSW 06:13:15 51° NNW 06:17:19 10° NE
STARLINK-65 3.9 06:10:56 10° WSW 06:14:58 50° NNW 06:19:02 10° NE
COSMOS 2428 3.4 06:13:23 10° NNW 06:19:01 57° ENE 06:24:39 10° SE
Cosmos 1151 Rocket 4.2 06:15:40 10° NW 06:19:04 23° W 06:22:28 10° SW
STARLINK-69 4.0 06:15:56 10° W 06:19:56 47° NNW 06:23:58 10° NE
STARLINK-66 4.0 06:17:40 10° W 06:21:40 46° NNW 06:25:41 10° NE
Cosmos 1833 4.2 06:16:11 10° SW 06:21:44 62° WNW 06:27:20 10° NNE
Cosmos 1408 4.1 06:19:33 10° WSW 06:22:01 17° WNW 06:24:29 10° NNW
STARLINK-41 4.0 06:19:14 10° W 06:23:14 46° NNW 06:27:14 10° NE
Cosmos 2360 Rocket 2.5 06:18:34 10° NW 06:24:00 47° WSW 06:29:24 10° S
RESURS DK-1 4.3 06:21:16 10° N 06:24:48 26° NE 06:28:18 10° ESE
STARLINK-64 4.0 06:20:58 10° W 06:24:56 44° NNW 06:28:56 10° NE
SL-16 R/B 3.5 06:22:16 10° NW 06:26:13 20° W 06:30:09 10° SW
STARLINK-70 4.1 06:22:36 10° W 06:26:35 44° NNW 06:30:34 10° NE
Cosmos 1515 Rocket 4.5 06:23:02 10° NNW 06:26:43 27° W 06:30:22 10° SSW
Cosmos 2237 Rocket 3.9 06:22:18 10° N 06:27:14 29° NE 06:32:07 10° ESE
Cosmos 1707 Rocket 4.4 06:23:06 10° N 06:27:32 57° E 06:31:56 10° SSE
STARLINK-68 4.1 06:24:27 10° W 06:28:24 42° NNW 06:32:21 10° NE
STARLINK-58 4.1 06:25:48 10° W 06:29:45 42° NNW 06:33:43 10° NE
Cosmos 1805 Rocket 3.5 06:26:29 10° S 06:30:49 86° W 06:35:11 10° N
ATLAS 2AS CENTAUR R/B 3.7 06:25:33 10° NW 06:31:55 31° WSW 06:37:50 10° S
BREEZE-M DEB (TANK) 4.3 06:31:05 10° SW 06:41:27 55° SSE 06:44:47 10° ENE
